GW7392 Weather Reports


Display with metric or nautical units.
time (UTC)temp
F
wind
direction
speed
MPH
gust
MPH
rain 1hr
in
rain 24hr
in
rain mn
in
humidity
%
barometer
mb
20260509210521 57 0.0 0.0 0.00 0.00 0.00 68 1006.4
20260509205521 57 0.0 0.0 0.00 0.00 0.00 69 1006.3
20260509204521 57 0.0 0.0 0.00 0.00 0.00 69 1006.5
20260509203531 57 0.0 0.0 0.00 0.00 0.00 70 1006.6
20260509202520 56 0.0 0.0 0.00 0.00 0.00 72 1006.5
20260509201520 56 0.0 0.0 0.00 0.00 0.00 75 1006.7
20260509200609 56 0.0 0.0 0.00 0.00 0.00 75 1006.8
20260509195520 56 0.0 0.0 0.00 0.00 0.00 76 1006.9
20260509194520 56 0.0 0.0 0.00 0.00 0.00 76 1007.0
20260509193520 56 0.0 0.0 0.00 0.00 0.00 76 1007.1
20260509192520 56 0.0 0.0 0.00 0.00 0.00 76 1006.9
20260509191537 56 0.0 0.0 0.00 0.00 0.00 74 1007.0
20260509190521 57 0.0 0.0 0.00 0.00 0.00 73 1007.3
20260509185537 56 0.0 0.0 0.00 0.00 0.00 74 1007.0
20260509184537 56 0.0 0.0 0.00 0.00 0.00 74 1007.2
20260509183521 56 0.0 0.0 0.00 0.00 0.00 74 1007.4
20260509182520 56 0.0 0.0 0.00 0.00 0.00 74 1007.3
20260509181520 56 0.0 0.0 0.00 0.00 0.00 73 1007.2
20260509180537 56 0.0 0.0 0.00 0.00 0.00 72 1007.4
20260509175520 57 0.0 0.0 0.00 0.00 0.00 72 1007.4
20260509174521 57 0.0 0.0 0.00 0.00 0.00 73 1007.5
20260509173520 57 0.0 0.0 0.00 0.00 0.00 73 1007.6
20260509172521 57 0.0 0.0 0.00 0.00 0.00 74 1007.8
20260509171521 56 0.0 0.0 0.00 0.00 0.00 75 1007.9
20260509170521 56 0.0 0.0 0.00 0.00 0.00 75 1007.9
20260509165520 56 0.0 0.0 0.00 0.00 0.00 76 1008.1
20260509164520 56 0.0 0.0 0.00 0.00 0.00 75 1008.1
20260509163520 56 0.0 0.0 0.00 0.00 0.00 74 1008.0
20260509162520 56 0.0 0.0 0.00 0.00 0.00 74 1007.9
20260509161520 56 0.0 0.0 0.00 0.00 0.00 72 1007.9
20260509160520 55 0.0 0.0 0.00 0.00 0.00 76 1007.7
20260509155520 56 0.0 0.0 0.00 0.00 0.00 73 1007.9
20260509154519 58 0.0 0.0 0.00 0.00 0.00 69 1007.9
20260509153520 58 0.0 0.0 0.00 0.00 0.00 68 1007.8
20260509152521 59 0.0 0.0 0.00 0.00 0.00 67 1007.6
20260509151520 62 0.0 0.0 0.00 0.00 0.00 60 1007.9
20260509150520 64 0.0 0.0 0.00 0.00 0.00 56 1008.1
20260509145520 65 0.0 0.0 0.00 0.00 0.00 54 1008.0
20260509144520 65 0.0 0.0 0.00 0.00 0.00 52 1008.0
20260509143520 66 0.0 0.0 0.00 0.00 0.00 52 1008.1
20260509142537 66 0.0 0.0 0.00 0.00 0.00 53 1008.2
20260509141520 66 0.0 0.0 0.00 0.00 0.00 52 1008.2
20260509140536 66 0.0 0.0 0.00 0.00 0.00 52 1008.2
20260509135519 67 0.0 0.0 0.00 0.00 0.00 52 1008.4
20260509134520 67 0.0 0.0 0.00 0.00 0.00 51 1008.4
20260509133520 67 0.0 0.0 0.00 0.00 0.00 51 1008.4
20260509132520 67 0.0 0.0 0.00 0.00 0.00 51 1008.5
20260509131520 68 0.0 0.0 0.00 0.00 0.00 53 1008.7
20260509130519 68 0.0 0.0 0.00 0.00 0.00 51 1008.8
20260509125520 68 0.0 0.0 0.00 0.00 0.00 51 1008.9
20260509124520 68 0.0 0.0 0.00 0.00 0.00 51 1009.1
20260509123537 68 0.0 0.0 0.00 0.00 0.00 50 1009.1
20260509122520 68 0.0 0.0 0.00 0.00 0.00 50 1009.2
20260509121520 68 0.0 0.0 0.00 0.00 0.00 50 1008.9
20260509120520 68 0.0 0.0 0.00 0.00 0.00 48 1009.0
20260509115520 67 0.0 0.0 0.00 0.00 0.00 49 1009.0
20260509114520 68 0.0 0.0 0.00 0.00 0.00 49 1009.3
20260509113520 67 0.0 0.0 0.00 0.00 0.00 52 1009.3
20260509112519 67 0.0 0.0 0.00 0.00 0.00 51 1009.5
20260509111519 66 0.0 0.0 0.00 0.00 0.00 50 1009.6
20260509110520 66 0.0 0.0 0.00 0.00 0.00 51 1009.8
20260509105634 67 0.0 0.0 0.00 0.03 0.02 53 1010.0
20260509104658 66 0.0 0.0 0.00 0.03 0.02 57 1010.3
20260509103519 67 0.0 5.0 0.00 0.03 0.01 54 1010.4
20260509102519 66 0.0 0.0 0.00 0.03 0.01 57 1010.7
20260509101552 65 0.0 0.0 0.00 0.03 0.01 56 1010.8
20260509100520 65 0.0 0.0 0.00 0.03 0.01 57 1011.0
20260509095519 65 0.0 0.0 0.00 0.03 0.01 57 1011.1
20260509094519 65 0.0 0.0 0.00 0.03 0.01 59 1011.1
20260509093538 65 0.0 0.0 0.00 0.03 0.01 60 1011.5
20260509092519 64 0.0 0.0 0.00 0.03 0.01 63 1011.8
20260509091519 63 0.0 0.0 0.00 0.03 0.01 65 1011.9
20260509090519 62 0.0 0.0 0.00 0.03 0.01 64 1011.9
20260509085538 61 0.0 0.0 0.00 0.03 0.01 66 1011.8
20260509084520 61 0.0 0.0 0.01 0.03 0.01 66 1012.1
20260509083520 60 0.0 0.0 0.01 0.03 0.01 68 1012.1
20260509082536 60 0.0 0.0 0.01 0.03 0.01 69 1012.1
20260509081519 60 0.0 0.0 0.01 0.03 0.01 72 1012.3
20260509080520 59 0.0 0.0 0.01 0.03 0.01 73 1012.4
20260509075521 59 0.0 1.0 0.01 0.03 0.01 76
20260509074519 59 0.0 0.0 0.00 0.02 0.00 78 1012.6
20260509073519 57 0.0 0.0 0.00 0.02 0.00 80 1012.6
20260509072537 57 0.0 0.0 0.00 0.02 0.00 82 1012.7
20260509071519 55 0.0 0.0 0.00 0.02 0.00 83 1012.8
20260509070519 54 0.0 0.0 0.00 0.02 0.00 83 1012.6
20260509065519 53 0.0 0.0 0.00 0.02 0.00 84 1012.7
20260509064521 53 0.0 0.0 0.00 0.02 0.00 85 1012.7
20260509063521 52 0.0 0.0 0.00 0.02 0.00 87 1012.6
20260509062548 51 0.0 0.0 0.00 0.02 0.01 89 1012.6
20260509061732 50 0.0 0.0 0.00 0.02 0.01 90 1012.6
20260509060519 50 0.0 0.0 0.00 0.02 0.00 91 1012.5
20260509055521 49 0.0 0.0 0.00 0.02 0.00 91 1012.3
20260509054519 48 0.0 0.0 0.00 0.02 0.01 91 1012.4
20260509054027 47 0.0 0.0 0.00 0.02 0.01 92 1012.2
20260509052522 47 0.0 0.0 0.00 0.02 0.01 92 1012.1
20260509051519 47 0.0 0.0 0.00 0.02 0.01 92 1012.1
20260509050535 46 0.0 0.0 0.00 0.02 0.01 92 1012.1
20260509045521 46 0.0 0.0 0.00 0.02 0.01 92 1012.1
20260509044521 46 0.0 0.0 0.00 0.02 0.01 93 1012.1
20260509043521 46 0.0 0.0 0.00 0.02 0.01 93 1012.1
20260509042610 46 0.0 0.0 0.00 0.02 0.01 93 1012.1
20260509041521 46 0.0 0.0 0.00 0.02 0.01 92 1012.0
20260509040521 46 0.0 0.0 0.00 0.02 0.01 92 1012.1
20260509035521 46 0.0 0.0 0.00 0.03 0.01 92 1012.1
20260509034519 46 0.0 0.0 0.00 0.03 0.01 92 1012.3
20260509033519 46 0.0 0.0 0.00 0.03 0.01 92 1012.3
20260509032520 46 0.0 0.0 0.00 0.03 0.01 92 1012.3
20260509032121 46 0.0 0.0 0.00 0.03 0.01 93 1012.2